Location: Newark
(15.4608°S, 41.1635°W)
Time: 12:16:18
(UTC+00:00)

Altair - All Passes

Search period start: 07 March 2021 00:00
Search period end: 17 March 2021 00:00
Orbit: 1501 x 1682 km, 47.2° (Epoch: 06 March)

Date Brightness Start Highest point End Pass type
(mag) Time Alt. Az. Time Alt. Az. Time Alt. Az.
07 Mar - 04:10:25 10° NNE 04:16:25 17° NE 04:22:27 10° E visible
07 Mar - 06:10:35 10° NW 06:20:43 86° NE 06:30:57 10° SE visible
07 Mar - 08:18:20 10° W 08:26:18 26° SW 08:34:18 10° SSE visible
07 Mar - 14:44:41 10° SSW 14:53:13 34° SE 15:01:27 10° ENE daylight
07 Mar - 16:48:50 10° SW 16:58:06 58° NW 17:07:03 10° NNE daylight
08 Mar - 03:46:12 10° NNE 03:51:14 15° NE 03:56:18 10° E visible
08 Mar - 05:45:26 10° NW 05:55:30 79° NE 06:05:43 10° SE visible
08 Mar - 07:52:39 10° W 08:00:57 28° SW 08:09:18 10° SSE visible
08 Mar - 14:19:38 10° SSW 14:27:57 31° SE 14:35:56 10° E daylight
08 Mar - 16:23:34 10° SW 16:32:57 65° NW 16:42:02 10° NNE daylight
09 Mar - 03:22:21 10° NNE 03:26:03 12° NE 03:29:46 10° ENE visible
09 Mar - 05:20:20 10° NNW 05:30:19 72° NE 05:40:27 10° SE visible
09 Mar - 07:26:59 10° W 07:35:36 31° SW 07:44:16 10° SSE visible
09 Mar - 13:54:35 10° SSW 14:02:38 28° SE 14:10:23 10° E daylight
09 Mar - 15:58:18 10° SW 16:07:49 73° NW 16:17:00 10° NNE daylight
09 Mar - 18:09:12 10° WNW 18:11:52 11° NW 18:14:31 10° NW daylight
10 Mar - 02:59:51 10° NE 03:00:52 10° NE 03:01:53 10° ENE night (unlit)
10 Mar - 04:55:15 10° NNW 05:05:07 65° NE 05:15:10 10° SE visible
10 Mar - 07:01:24 10° W 07:10:17 34° SW 07:19:14 10° SSE visible
10 Mar - 13:29:34 10° SSW 13:37:20 26° SE 13:44:48 10° E daylight
10 Mar - 15:33:03 10° SW 15:42:41 80° NW 15:51:55 10° NE daylight
10 Mar - 17:42:29 10° W 17:46:43 14° NW 17:50:55 10° NNW daylight
11 Mar - 04:30:13 10° NNW 04:39:56 58° NE 04:49:51 10° SE visible
11 Mar - 06:35:51 10° WNW 06:44:58 37° SW 06:54:10 10° SSE visible
11 Mar - 08:51:08 10° SSW 08:52:40 10° SSW 08:54:13 10° S daylight
11 Mar - 13:04:33 10° SSW 13:11:58 24° SE 13:19:10 10° E daylight
11 Mar - 15:07:49 10° SW 15:17:31 88° NW 15:26:49 10° NE daylight
11 Mar - 17:16:17 10° W 17:21:34 16° NW 17:26:48 10° NNW daylight
12 Mar - 04:05:13 10° NNW 04:14:46 52° NE 04:24:30 10° SE visible
12 Mar - 06:10:21 10° WNW 06:19:40 41° SW 06:29:06 10° SSE visible
12 Mar - 08:24:12 10° SW 08:27:08 11° SSW 08:30:04 10° S visible
12 Mar - 12:39:33 10° SSW 12:46:37 22° SSE 12:53:28 10° E daylight
12 Mar - 14:42:37 10° SW 14:52:21 84° SE 15:01:40 10° NE daylight
12 Mar - 16:50:20 10° W 16:56:26 19° NW 17:02:29 10° NNW daylight
13 Mar - 03:40:15 10° NNW 03:49:36 46° NE 03:59:08 10° ESE visible
13 Mar - 05:44:54 10° WNW 05:54:23 45° SW 06:04:00 10° SSE visible
13 Mar - 07:57:44 10° SW 08:01:36 12° SSW 08:05:29 10° S visible
13 Mar - 12:14:34 10° SSW 12:21:14 20° SSE 12:27:43 10° ESE daylight
13 Mar - 14:17:25 10° SW 14:27:10 76° SE 14:36:30 10° NE daylight
13 Mar - 16:24:31 10° W 16:31:19 22° NW 16:37:59 10° N daylight
14 Mar - 03:15:21 10° NNW 03:24:25 41° NE 03:33:42 10° ESE visible
14 Mar - 05:19:29 10° WNW 05:29:06 50° SW 05:38:54 10° SSE visible
14 Mar - 07:31:28 10° SW 07:36:06 14° SSW 07:40:45 10° S visible
14 Mar - 11:49:36 10° S 11:55:50 18° SSE 12:01:54 10° ESE daylight
14 Mar - 13:52:15 10° SW 14:02:00 69° SE 14:11:17 10° NE daylight
14 Mar - 15:58:50 10° WSW 16:06:11 25° NW 16:13:23 10° N daylight
15 Mar - 02:50:29 10° N 02:59:16 37° NE 03:08:14 10° ESE visible
15 Mar - 04:54:06 10° WNW 05:03:50 55° SW 05:13:47 10° SSE visible
15 Mar - 07:05:20 10° WSW 07:10:37 15° SSW 07:15:55 10° S visible
15 Mar - 11:24:40 10° S 11:30:25 16° SSE 11:36:02 10° ESE daylight
15 Mar - 13:27:05 10° SW 13:36:48 62° SE 13:46:03 10° NE daylight
15 Mar - 15:33:14 10° WSW 15:41:04 29° NW 15:48:43 10° N daylight
16 Mar - 02:25:40 10° N 02:34:06 33° NE 02:42:43 10° ESE night (unlit)
16 Mar - 04:28:46 10° NW 04:38:35 60° SW 04:48:38 10° SSE visible
16 Mar - 06:39:17 10° WSW 06:45:09 16° SSW 06:51:02 10° S visible
16 Mar - 10:59:45 10° S 11:04:58 15° SSE 11:10:04 10° ESE daylight
16 Mar - 13:01:57 10° SSW 13:11:35 56° SE 13:20:46 10° ENE daylight
16 Mar - 15:07:41 10° WSW 15:15:57 33° NW 15:23:58 10° N daylight
